Location: Feudal
(51.8839°N, 107.6105°W)
Time: 05:08:57
(UTC+00:00)

Envisat - Pass Details

Date: 28 January 2022
Orbit: 764 x 765 km, 98.2° (Epoch: 25 May)

Event Time Altitude Azimuth Distance (km) Brightness Sun altitude
Rises 13:01:05 0° 10° (N) 3,245 6.3 -17.6°
Reaches altitude 10° 13:03:29 10° 4° (N) 2,315 5.4 -17.2°
Maximum altitude 13:08:17 44° 294° (WNW) 1,061 3.3 -16.5°
Drops below altitude 10° 13:13:04 10° 224° (SW) 2,301 5.1 -15.7°
Sets 13:15:26 0° 218° (SW) 3,223 6.0 -15.4°
